Location: Middelsbur
(53.6609°N, 7.5020°E)
Time: 00:35:29
(UTC+00:00)

USA 267 - Pass Details

Date: 06 July 2020
Orbit: 1101 x 1107 km, 123.0° (Epoch: 01 August)

Event Time Altitude Azimuth Distance (km) Brightness Sun altitude
Exits shadow 22:36:32 16° 159° (SSE) 2,507 4.5 -12.7°
Maximum altitude 22:41:20 42° 223° (SW) 1,538 3.8 -12.9°
Drops below altitude 10° 22:47:30 10° 292° (WNW) 2,975 6.0 -13.1°
Sets 22:50:10 0° 300° (WNW) 3,936 6.8 -13.2°
